User: anonymous   Login
Location: Aranbee
(34.0885°N, 118.2342°W)
Time: 03:04:20
(UTC+00:00)
Language:

Hubble Space Telescope - Orbit

View from above orbital plane
View from above orbital plane
View from above satellite
View from above satellite

Ground track
Ground track

The orbit data is extracted from the following two-line orbital elements,

1 20580U 90037B   20335.32952494  .00000975  00000-0  48323-4 0  9990
2 20580  28.4705 302.4811 0002923  80.2013  66.9771 15.09493575481144
Epoch (UTC): 30 November 2020 07:54:30
Eccentricity: 0.0002923
inclination: 28.4705°
perigee height: 536 km
apogee height: 540 km
right ascension of ascending node: 302.4811°
argument of perigee: 80.2013°
revolutions per day: 15.09493575
mean anomaly at epoch: 66.9771°
orbit number at epoch: 48114

The dashed part of the orbit path shows where the satellite is in the earth's shadow,  

DLR